Regional Weather Roundup
Issued by NWS

Home | Current Version | Previous Version | Graphics & Text | Print | Product List | Glossary On
Versions: 1 2 3 4 5 6 7 8 9 10 11 12 13 14 15 16 17 18 19 20 21 22 23 24 25 26 27 28 29 30 31 32 33 34 35 36 37 38 39 40 41 42 43 44 45 46 47 48 49 50
000
ASUS43 KBIS 191359
RWRND

NORTH DAKOTA REGIONAL WEATHER ROUNDUP
NATIONAL WEATHER SERVICE BISMARCK ND
900 AM CDT SAT APR 19 2014

NOTE: "FAIR" INDICATES FEW OR NO CLOUDS BELOW 12,000 FEET WITH NO
SIGNIFICANT WEATHER AND/OR OBSTRUCTIONS TO VISIBILITY.


NDZ001>003-009>011-017-191500-
NORTHWEST NORTH DAKOTA

CITY           SKY/WX    TMP DP  RH WIND       PRES   REMARKS
WILLISTON      MOSUNNY   42  36  79 W17G26    29.82R
MINOT          MOSUNNY   42  33  70 SW20G29   29.75R
$$

NDZ018>021-031>035-040>046-191500-
SOUTHWEST NORTH DAKOTA

CITY           SKY/WX    TMP DP  RH WIND       PRES   REMARKS
BISMARCK       SUNNY     46  30  53 W9        29.88R
GARRISON         N/A     44  33  65 W17G24    29.80R
HETTINGER ARPT MOSUNNY   44  25  47 SW18      29.94R
$$

NDZ004>008-012>016-024-026-027-054-191500-
NORTHEAST NORTH DAKOTA

CITY           SKY/WX    TMP DP  RH WIND       PRES   REMARKS
GRAND FORKS    MOSUNNY   49  39  68 SW12      29.76R
DEVILS LAKE    SUNNY     43  34  70 SW15G22   29.75S
$$

NDZ022-023-025-028>030-036>039-047>053-191500-
SOUTHEAST NORTH DAKOTA

CITY           SKY/WX    TMP DP  RH WIND       PRES   REMARKS
FARGO          CLOUDY    51  40  65 S15       29.83R
$$




USA.gov is the U.S. government's official web portal to all federal, state and local government web resources and services.